Вернуться в каталог

STARLINK-11203

АктивенСвязьVLEO
NORAD 60117·PAYLOAD·🇺🇸 United States

Запущен Jun 24, 2024 с Vandenberg Space Force Base

Loading…

Ближайшие Пролёты (ближайшие 24 часа)

TLE

СвежийSource: CelesTrak SupGP

Эпоха: Sep 15, 2026, 02:26 UTC

1 60117C 24118E   26258.10187500 -.00043323  00000+0 -35686-3 0  2581
2 60117  53.1572   7.6147 0001023  95.1130 186.7940 15.69731171    17

Отслеживайте STARLINK-11203 в реальном времени с AllMySat

Download on the App Store